| time (UTC) | temp F | wind direction | speed MPH | gust MPH | rain 1hr in | rain 24hr in | rain mn in | humidity % | barometer mb |
| 20260508145430 | 63 | 51 | 1.0 | 1.0 | 0.00 | 0.00 | 0.00 | 62 | 1021.7 |
| 20260508144927 | 62 | 107 | 1.0 | 2.0 | 0.00 | 0.00 | 0.00 | 65 | 1021.7 |
| 20260508144425 | 61 | 63 | 2.0 | 2.0 | 0.00 | 0.00 | 0.00 | 65 | 1021.9 |
| 20260508143922 | 61 | 102 | 1.0 | 2.0 | 0.00 | 0.00 | 0.00 | 64 | 1021.9 |
| 20260508143419 | 60 | 81 | 2.0 | 3.0 | 0.00 | 0.00 | 0.00 | 65 | 1021.8 |
| 20260508142915 | 61 | 68 | 2.0 | 3.0 | 0.00 | 0.00 | 0.00 | 65 | 1021.8 |
| 20260508142413 | 61 | 147 | 1.0 | 2.0 | 0.00 | 0.00 | 0.00 | 62 | 1021.7 |
| 20260508141909 | 61 | 113 | 0.0 | 2.0 | 0.00 | 0.00 | 0.00 | 63 | 1022.0 |
| 20260508141406 | 61 | 62 | 1.0 | 2.0 | 0.00 | 0.00 | 0.00 | 61 | 1022.0 |
| 20260508140904 | 60 | 109 | 2.0 | 2.0 | 0.00 | 0.00 | 0.00 | 63 | 1022.1 |
| 20260508140400 | 60 | 91 | 2.0 | 3.0 | 0.00 | 0.00 | 0.00 | 64 | 1022.0 |
| 20260508135856 | 60 | 106 | 1.0 | 2.0 | 0.00 | 0.00 | 0.00 | 63 | 1022.0 |
| 20260508135352 | 59 | 64 | 2.0 | 4.0 | 0.00 | 0.00 | 0.00 | 63 | 1021.6 |
| 20260508134849 | 59 | 76 | 2.0 | 6.0 | 0.00 | 0.00 | 0.00 | 65 | 1021.9 |
| 20260508134345 | 60 | 37 | 2.0 | 4.0 | 0.00 | 0.00 | 0.00 | 63 | 1021.7 |
| 20260508133842 | 59 | 89 | 1.0 | 4.0 | 0.00 | 0.00 | 0.00 | 63 | 1021.7 |
| 20260508133340 | 60 | 120 | 0.0 | 3.0 | 0.00 | 0.00 | 0.00 | 62 | 1021.8 |
| 20260508132837 | 59 | 358 | 2.0 | 4.0 | 0.00 | 0.00 | 0.00 | 65 | 1021.7 |
| 20260508132335 | 59 | 88 | 2.0 | 3.0 | 0.00 | 0.00 | 0.00 | 65 | 1021.9 |
| 20260508131831 | 59 | 67 | 2.0 | 3.0 | 0.00 | 0.00 | 0.00 | 65 | 1021.9 |
| 20260508131327 | 59 | 85 | 1.0 | 2.0 | 0.00 | 0.00 | 0.00 | 64 | 1021.7 |
| 20260508130824 | 60 | 99 | 1.0 | 2.0 | 0.00 | 0.00 | 0.00 | 64 | 1021.8 |
| 20260508130321 | 60 | 119 | 0.0 | 1.0 | 0.00 | 0.00 | 0.00 | 63 | 1021.8 |
| 20260508125817 | 60 | 81 | 2.0 | 3.0 | 0.00 | 0.00 | 0.00 | 66 | 1021.8 |
| 20260508125313 | 62 | 135 | 0.0 | 0.0 | 0.00 | 0.00 | 0.00 | 66 | 1021.9 |
| 20260508124811 | 59 | 98 | 0.0 | 1.0 | 0.00 | 0.00 | 0.00 | 66 | 1021.9 |
| 20260508124308 | 61 | 117 | 0.0 | 1.0 | 0.00 | 0.00 | 0.00 | 66 | 1021.8 |
| 20260508123806 | 59 | 103 | 0.0 | 0.0 | 0.00 | 0.00 | 0.00 | 75 | 1022.2 |
| 20260508123304 | 56 | 4 | 0.0 | 0.0 | 0.00 | 0.00 | 0.00 | 77 | 1022.1 |
| 20260508122800 | 55 | 297 | 0.0 | 2.0 | 0.00 | 0.00 | 0.00 | 79 | 1021.9 |
| 20260508122257 | 55 | 326 | 1.0 | 1.0 | 0.00 | 0.00 | 0.00 | 80 | 1021.7 |
| 20260508121754 | 53 | 300 | 1.0 | 3.0 | 0.00 | 0.00 | 0.00 | 83 | 1021.5 |
| 20260508121253 | 52 | 270 | 1.0 | 3.0 | 0.00 | 0.00 | 0.00 | 86 | 1021.7 |
| 20260508120749 | 52 | 293 | 1.0 | 2.0 | 0.00 | 0.00 | 0.00 | 89 | 1021.7 |
| 20260508120248 | 51 | 289 | 2.0 | 2.0 | 0.00 | 0.00 | 0.00 | 90 | 1021.7 |
| 20260508115745 | 50 | 290 | 2.0 | 2.0 | 0.00 | 0.00 | 0.00 | 90 | 1021.6 |
| 20260508115242 | 49 | 282 | 2.0 | 3.0 | 0.00 | 0.00 | 0.00 | 90 | 1021.4 |
| 20260508114733 | 49 | 296 | 2.0 | 2.0 | 0.00 | 0.00 | 0.00 | 91 | 1021.4 |
| 20260508114230 | 48 | 293 | 2.0 | 3.0 | 0.00 | 0.00 | 0.00 | 91 | 1021.1 |
| 20260508113726 | 48 | 290 | 2.0 | 4.0 | 0.00 | 0.00 | 0.00 | 91 | 1020.9 |
| 20260508113225 | 47 | 299 | 2.0 | 3.0 | 0.00 | 0.00 | 0.00 | 91 | 1020.9 |
| 20260508112721 | 47 | 304 | 2.0 | 3.0 | 0.00 | 0.00 | 0.00 | 91 | 1020.9 |
| 20260508112218 | 47 | 297 | 3.0 | 3.0 | 0.00 | 0.00 | 0.00 | 92 | 1020.8 |
| 20260508111715 | 46 | 294 | 2.0 | 3.0 | 0.00 | 0.00 | 0.00 | 92 | 1020.9 |
| 20260508111213 | 46 | 296 | 3.0 | 3.0 | 0.00 | 0.00 | 0.00 | 93 | 1020.6 |
| 20260508110710 | 46 | 295 | 2.0 | 3.0 | 0.00 | 0.00 | 0.00 | 93 | 1020.5 |
| 20260508110207 | 46 | 293 | 2.0 | 3.0 | 0.00 | 0.00 | 0.00 | 93 | 1020.4 |
| 20260508105706 | 46 | 298 | 3.0 | 3.0 | 0.00 | 0.00 | 0.00 | 93 | 1020.3 |
| 20260508105204 | 46 | 305 | 3.0 | 3.0 | 0.00 | 0.00 | 0.00 | 92 | 1020.2 |
| 20260508104701 | 46 | 302 | 3.0 | 4.0 | 0.00 | 0.00 | 0.00 | 92 | 1020.2 |
| 20260508104158 | 46 | 314 | 2.0 | 3.0 | 0.00 | 0.00 | 0.00 | 92 | 1020.1 |
| 20260508103655 | 46 | 299 | 3.0 | 3.0 | 0.00 | 0.00 | 0.00 | 91 | 1020.1 |
| 20260508103152 | 46 | 297 | 3.0 | 3.0 | 0.00 | 0.00 | 0.00 | 91 | 1019.9 |
| 20260508102649 | 46 | 293 | 3.0 | 3.0 | 0.00 | 0.00 | 0.00 | 92 | 1020.0 |
| 20260508102147 | 46 | 302 | 2.0 | 3.0 | 0.00 | 0.00 | 0.00 | 92 | 1019.8 |
| 20260508101644 | 47 | 298 | 2.0 | 3.0 | 0.00 | 0.00 | 0.00 | 91 | 1019.8 |
| 20260508101141 | 47 | 296 | 2.0 | 3.0 | 0.00 | 0.00 | 0.00 | 91 | 1019.7 |
| 20260508100638 | 48 | 303 | 2.0 | 2.0 | 0.00 | 0.00 | 0.00 | 91 | 1019.6 |
| 20260508100136 | 48 | 300 | 3.0 | 3.0 | 0.00 | 0.00 | 0.00 | 90 | 1019.7 |
| 20260508095633 | 48 | 302 | 3.0 | 3.0 | 0.00 | 0.00 | 0.00 | 90 | 1019.8 |
| 20260508095130 | 47 | 299 | 3.0 | 4.0 | 0.00 | 0.00 | 0.00 | 89 | 1019.8 |
| 20260508094627 | 48 | 289 | 3.0 | 3.0 | 0.00 | 0.00 | 0.00 | 90 | 1019.6 |
| 20260508094124 | 48 | 295 | 3.0 | 3.0 | 0.00 | 0.00 | 0.00 | 90 | 1019.7 |
| 20260508093621 | 48 | 285 | 2.0 | 3.0 | 0.00 | 0.00 | 0.00 | 89 | 1019.7 |
| 20260508093119 | 48 | 295 | 2.0 | 3.0 | 0.00 | 0.00 | 0.00 | 88 | 1019.6 |
| 20260508092616 | 49 | 287 | 2.0 | 3.0 | 0.00 | 0.00 | 0.00 | 89 | 1019.6 |
| 20260508092114 | 49 | 291 | 2.0 | 2.0 | 0.00 | 0.00 | 0.00 | 88 | 1019.6 |
| 20260508091611 | 49 | 281 | 1.0 | 2.0 | 0.00 | 0.00 | 0.00 | 88 | 1019.5 |
| 20260508091108 | 49 | 296 | 1.0 | 2.0 | 0.00 | 0.00 | 0.00 | 89 | 1019.6 |
| 20260508090606 | 49 | 288 | 2.0 | 2.0 | 0.00 | 0.00 | 0.00 | 88 | 1019.6 |
| 20260508090103 | 49 | 293 | 2.0 | 2.0 | 0.00 | 0.00 | 0.00 | 88 | 1019.4 |
| 20260508085559 | 49 | 298 | 2.0 | 2.0 | 0.00 | 0.00 | 0.00 | 88 | 1019.5 |
| 20260508085056 | 49 | 286 | 2.0 | 2.0 | 0.00 | 0.00 | 0.00 | 88 | 1019.4 |
| 20260508084552 | 50 | 298 | 2.0 | 2.0 | 0.00 | 0.00 | 0.00 | 88 | 1019.4 |
| 20260508084049 | 50 | 302 | 2.0 | 2.0 | 0.00 | 0.00 | 0.00 | 88 | 1019.4 |
| 20260508083547 | 50 | 287 | 2.0 | 2.0 | 0.00 | 0.00 | 0.00 | 88 | 1019.4 |
| 20260508083043 | 51 | 282 | 2.0 | 2.0 | 0.00 | 0.00 | 0.00 | 88 | 1019.4 |
| 20260508082539 | 51 | 302 | 1.0 | 2.0 | 0.00 | 0.00 | 0.00 | 88 | 1019.3 |
| 20260508082037 | 51 | 282 | 2.0 | 2.0 | 0.00 | 0.00 | 0.00 | 87 | 1019.2 |
| 20260508081534 | 51 | 286 | 2.0 | 2.0 | 0.00 | 0.00 | 0.00 | 86 | 1019.4 |
| 20260508081030 | 51 | 283 | 1.0 | 3.0 | 0.00 | 0.00 | 0.00 | 87 | 1019.5 |
| 20260508080529 | 51 | 284 | 2.0 | 2.0 | 0.00 | 0.00 | 0.00 | 87 | 1019.5 |
| 20260508080025 | 52 | 295 | 1.0 | 1.0 | 0.00 | 0.00 | 0.00 | 86 | 1019.5 |
| 20260508075522 | 52 | 286 | 1.0 | 1.0 | 0.00 | 0.00 | 0.00 | 86 | 1019.2 |
| 20260508075019 | 51 | 339 | 1.0 | 1.0 | 0.00 | 0.00 | 0.00 | 86 | 1019.5 |
| 20260508074517 | 51 | 300 | 1.0 | 1.0 | 0.00 | 0.00 | 0.00 | 88 | 1019.3 |
| 20260508074014 | 51 | 289 | 1.0 | 2.0 | 0.00 | 0.00 | 0.00 | 88 | 1019.5 |
| 20260508073511 | 52 | 304 | 1.0 | 2.0 | 0.00 | 0.00 | 0.00 | 88 | 1019.5 |
| 20260508073009 | 52 | 333 | 0.0 | 2.0 | 0.00 | 0.00 | 0.00 | 88 | 1019.4 |
| 20260508072504 | 51 | 316 | 2.0 | 2.0 | 0.00 | 0.00 | 0.00 | 89 | 1019.5 |
| 20260508072002 | 52 | 298 | 1.0 | 2.0 | 0.00 | 0.00 | 0.00 | 89 | 1019.5 |
| 20260508071459 | 51 | 281 | 2.0 | 2.0 | 0.00 | 0.00 | 0.00 | 89 | 1019.5 |
| 20260508070957 | 51 | 311 | 1.0 | 2.0 | 0.00 | 0.00 | 0.00 | 89 | 1019.6 |
| 20260508070454 | 51 | 290 | 2.0 | 2.0 | 0.00 | 0.00 | 0.00 | 88 | 1019.9 |
| 20260508065952 | 51 | 279 | 1.0 | 2.0 | 0.00 | 0.00 | 0.00 | 88 | 1019.7 |
| 20260508065450 | 51 | 280 | 2.0 | 2.0 | 0.00 | 0.00 | 0.00 | 89 | 1019.8 |
| 20260508064948 | 51 | 297 | 1.0 | 1.0 | 0.00 | 0.00 | 0.00 | 89 | 1019.7 |
| 20260508064445 | 51 | 299 | 2.0 | 2.0 | 0.00 | 0.00 | 0.00 | 89 | 1019.8 |
| 20260508063943 | 52 | 312 | 1.0 | 3.0 | 0.00 | 0.00 | 0.00 | 88 | 1019.8 |
| 20260508063440 | 51 | 298 | 2.0 | 3.0 | 0.00 | 0.00 | 0.00 | 87 | 1019.8 |
| 20260508062938 | 51 | 297 | 2.0 | 3.0 | 0.00 | 0.00 | 0.00 | 85 | 1019.8 |
| 20260508062436 | 52 | 295 | 2.0 | 2.0 | 0.00 | 0.00 | 0.00 | 85 | 1019.9 |
| 20260508061932 | 52 | 308 | 1.0 | 2.0 | 0.00 | 0.00 | 0.00 | 85 | 1020.0 |
| 20260508061430 | 52 | 291 | 1.0 | 2.0 | 0.00 | 0.00 | 0.00 | 86 | 1019.8 |
| 20260508060926 | 53 | 304 | 2.0 | 2.0 | 0.00 | 0.00 | 0.00 | 86 | 1019.9 |
| 20260508060424 | 53 | 310 | 2.0 | 2.0 | 0.00 | 0.00 | 0.00 | 84 | 1019.9 |
| 20260508055919 | 53 | 308 | 1.0 | 2.0 | 0.00 | 0.00 | 0.00 | 85 | 1020.0 |
| 20260508055416 | 53 | 278 | 1.0 | 2.0 | 0.00 | 0.00 | 0.00 | 85 | 1020.0 |
| 20260508054913 | 53 | 54 | 0.0 | 1.0 | 0.00 | 0.00 | 0.00 | 85 | 1019.8 |
| 20260508054410 | 53 | 23 | 0.0 | 1.0 | 0.00 | 0.00 | 0.00 | 85 | 1019.7 |
| 20260508053907 | 53 | 276 | 2.0 | 2.0 | 0.00 | 0.00 | 0.00 | 84 | 1019.7 |
| 20260508053404 | 54 | 284 | 1.0 | 2.0 | 0.00 | 0.00 | 0.00 | 83 | 1019.6 |
| 20260508052901 | 54 | 61 | 1.0 | 1.0 | 0.00 | 0.00 | 0.00 | 81 | 1019.8 |
| 20260508052359 | 54 | 325 | 1.0 | 2.0 | 0.00 | 0.00 | 0.00 | 84 | 1019.7 |
| 20260508051855 | 54 | 316 | 1.0 | 2.0 | 0.00 | 0.00 | 0.00 | 83 | 1019.5 |
| 20260508051350 | 55 | 65 | 0.0 | 1.0 | 0.00 | 0.00 | 0.00 | 79 | 1019.7 |
| 20260508050847 | 54 | 8 | 1.0 | 2.0 | 0.00 | 0.00 | 0.00 | 83 | 1019.6 |
| 20260508050344 | 54 | 296 | 3.0 | 3.0 | 0.00 | 0.00 | 0.00 | 85 | 1019.6 |
| 20260508045840 | 54 | 301 | 3.0 | 3.0 | 0.00 | 0.00 | 0.00 | 85 | 1019.7 |
| 20260508045337 | 54 | 303 | 2.0 | 3.0 | 0.00 | 0.00 | 0.00 | 85 | 1019.5 |
| 20260508044835 | 54 | 302 | 2.0 | 3.0 | 0.00 | 0.00 | 0.00 | 86 | 1019.7 |
| 20260508044331 | 54 | 297 | 2.0 | 3.0 | 0.00 | 0.00 | 0.00 | 86 | 1019.7 |
| 20260508043827 | 54 | 301 | 3.0 | 3.0 | 0.00 | 0.00 | 0.00 | 87 | 1019.7 |
| 20260508043324 | 55 | 279 | 2.0 | 3.0 | 0.00 | 0.00 | 0.00 | 87 | 1019.3 |
| 20260508042821 | 55 | 284 | 2.0 | 3.0 | 0.00 | 0.00 | 0.00 | 86 | 1019.2 |
| 20260508042319 | 55 | 293 | 2.0 | 3.0 | 0.00 | 0.00 | 0.00 | 86 | 1019.4 |
| 20260508041815 | 55 | 289 | 2.0 | 3.0 | 0.00 | 0.00 | 0.00 | 86 | 1019.4 |
| 20260508041312 | 55 | 309 | 2.0 | 2.0 | 0.00 | 0.00 | 0.00 | 85 | 1019.5 |
| 20260508040808 | 55 | 308 | 2.0 | 3.0 | 0.00 | 0.00 | 0.00 | 85 | 1019.4 |
| 20260508040306 | 55 | 297 | 2.0 | 3.0 | 0.00 | 0.00 | 0.00 | 86 | 1019.7 |
| 20260508035803 | 55 | 289 | 2.0 | 3.0 | 0.00 | 0.22 | 0.22 | 85 | 1019.4 |
| 20260508035300 | 55 | 299 | 2.0 | 3.0 | 0.00 | 0.22 | 0.22 | 86 | 1019.4 |
| 20260508034756 | 55 | 297 | 2.0 | 3.0 | 0.00 | 0.22 | 0.22 | 86 | 1019.4 |
| 20260508034254 | 55 | 294 | 2.0 | 3.0 | 0.00 | 0.22 | 0.22 | 87 | 1019.5 |
| 20260508033751 | 55 | 302 | 2.0 | 3.0 | 0.00 | 0.22 | 0.22 | 86 | 1019.4 |
| 20260508033249 | 55 | 300 | 2.0 | 3.0 | 0.00 | 0.22 | 0.22 | 85 | 1019.4 |
| 20260508032746 | 55 | 289 | 2.0 | 3.0 | 0.00 | 0.22 | 0.22 | 86 | 1019.4 |
| 20260508032243 | 55 | 285 | 2.0 | 3.0 | 0.00 | 0.22 | 0.22 | 88 | 1019.3 |
| 20260508031740 | 55 | 295 | 2.0 | 3.0 | 0.00 | 0.22 | 0.22 | 88 | 1019.4 |
| 20260508031236 | 55 | 291 | 2.0 | 2.0 | 0.00 | 0.22 | 0.22 | 89 | 1019.2 |
| 20260508030733 | 56 | 300 | 2.0 | 3.0 | 0.00 | 0.22 | 0.22 | 90 | 1019.1 |
| 20260508030230 | 55 | 306 | 2.0 | 3.0 | 0.00 | 0.22 | 0.22 | 90 | 1019.0 |
| 20260508025727 | 55 | 302 | 2.0 | 3.0 | 0.00 | 0.22 | 0.22 | 90 | 1019.0 |
| 20260508025224 | 55 | 297 | 2.0 | 3.0 | 0.00 | 0.22 | 0.22 | 90 | 1019.1 |
| 20260508024720 | 55 | 308 | 2.0 | 3.0 | 0.00 | 0.22 | 0.22 | 90 | 1019.0 |
| 20260508024217 | 55 | 288 | 2.0 | 3.0 | 0.00 | 0.22 | 0.22 | 90 | 1018.9 |
| 20260508023713 | 55 | 302 | 3.0 | 3.0 | 0.00 | 0.22 | 0.22 | 90 | 1019.0 |
| 20260508023211 | 55 | 279 | 2.0 | 3.0 | 0.00 | 0.22 | 0.22 | 91 | 1018.7 |
| 20260508022706 | 55 | 287 | 3.0 | 3.0 | 0.00 | 0.22 | 0.22 | 91 | 1018.9 |
| 20260508022204 | 55 | 287 | 2.0 | 3.0 | 0.00 | 0.22 | 0.22 | 91 | 1019.2 |
| 20260508021700 | 55 | 287 | 3.0 | 3.0 | 0.00 | 0.22 | 0.22 | 91 | 1019.0 |
| 20260508021155 | 55 | 300 | 3.0 | 4.0 | 0.00 | 0.22 | 0.22 | 91 | 1018.9 |
| 20260508020654 | 55 | 297 | 2.0 | 3.0 | 0.00 | 0.22 | 0.22 | 91 | 1019.1 |
| 20260508020151 | 55 | 293 | 3.0 | 3.0 | 0.00 | 0.22 | 0.22 | 91 | 1018.9 |
| 20260508015648 | 55 | 285 | 3.0 | 3.0 | 0.00 | 0.22 | 0.22 | 91 | 1018.9 |
| 20260508015145 | 55 | 295 | 2.0 | 3.0 | 0.00 | 0.22 | 0.22 | 91 | 1018.7 |
| 20260508014641 | 56 | 286 | 3.0 | 3.0 | 0.00 | 0.22 | 0.22 | 91 | 1018.8 |
| 20260508014137 | 55 | 283 | 2.0 | 3.0 | 0.00 | 0.22 | 0.22 | 91 | 1018.8 |
| 20260508013634 | 56 | 287 | 2.0 | 2.0 | 0.00 | 0.22 | 0.22 | 90 | 1018.5 |
| 20260508013131 | 56 | 296 | 2.0 | 3.0 | 0.00 | 0.22 | 0.22 | 90 | 1018.7 |
| 20260508012628 | 56 | 289 | 2.0 | 2.0 | 0.00 | 0.22 | 0.22 | 89 | 1018.5 |
| 20260508012125 | 56 | 302 | 2.0 | 2.0 | 0.00 | 0.22 | 0.22 | 89 | 1018.4 |
| 20260508011624 | 56 | 297 | 2.0 | 2.0 | 0.00 | 0.22 | 0.22 | 88 | 1018.3 |
| 20260508011120 | 56 | 302 | 2.0 | 2.0 | 0.00 | 0.22 | 0.22 | 88 | 1018.2 |
| 20260508010617 | 57 | 294 | 2.0 | 2.0 | 0.00 | 0.22 | 0.22 | 87 | 1017.9 |
| 20260508010115 | 57 | 282 | 2.0 | 2.0 | 0.00 | 0.22 | 0.22 | 86 | 1018.0 |
| 20260508005611 | 57 | 296 | 2.0 | 3.0 | 0.00 | 0.22 | 0.22 | 85 | 1018.1 |
| 20260508005108 | 58 | 297 | 2.0 | 2.0 | 0.00 | 0.22 | 0.22 | 85 | 1017.9 |
| 20260508004604 | 58 | 306 | 2.0 | 3.0 | 0.00 | 0.22 | 0.22 | 85 | 1017.8 |
| 20260508004101 | 58 | 295 | 2.0 | 2.0 | 0.00 | 0.22 | 0.22 | 85 | 1017.7 |
| 20260508003557 | 58 | 298 | 1.0 | 2.0 | 0.00 | 0.22 | 0.22 | 85 | 1017.6 |
| 20260508003055 | 59 | 292 | 1.0 | 2.0 | 0.00 | 0.22 | 0.22 | 85 | 1017.7 |
| 20260508002551 | 59 | 287 | 1.0 | 2.0 | 0.00 | 0.22 | 0.22 | 84 | 1017.5 |
| 20260508002049 | 60 | 286 | 1.0 | 2.0 | 0.00 | 0.22 | 0.22 | 83 | 1017.6 |
| 20260508001544 | 60 | 285 | 1.0 | 2.0 | 0.00 | 0.22 | 0.22 | 83 | 1017.5 |
| 20260508001041 | 61 | 264 | 1.0 | 2.0 | 0.00 | 0.22 | 0.22 | 81 | 1017.5 |
| 20260508000537 | 61 | 253 | 1.0 | 2.0 | 0.00 | 0.22 | 0.22 | 82 | 1017.3 |
| 20260508000034 | 62 | 280 | 1.0 | 3.0 | 0.00 | 0.22 | 0.22 | 78 | 1017.4 |
| 20260507235531 | 62 | 285 | 1.0 | 1.0 | 0.00 | 0.22 | 0.22 | 76 | 1017.4 |
| 20260507235028 | 63 | 283 | 1.0 | 1.0 | 0.00 | 0.22 | 0.22 | 74 | 1017.3 |
| 20260507234524 | 63 | 240 | 0.0 | 1.0 | 0.00 | 0.22 | 0.22 | 73 | 1017.2 |
| 20260507234021 | 64 | 278 | 1.0 | 2.0 | 0.00 | 0.22 | 0.22 | 73 | 1017.2 |
| 20260507233518 | 65 | 276 | 1.0 | 2.0 | 0.00 | 0.22 | 0.22 | 72 | 1017.0 |
| 20260507233017 | 66 | 300 | 3.0 | 3.0 | 0.00 | 0.22 | 0.22 | 63 | 1017.0 |
| 20260507232512 | 66 | 329 | 2.0 | 3.0 | 0.00 | 0.22 | 0.22 | 64 | 1017.3 |
| 20260507232010 | 67 | 281 | 2.0 | 3.0 | 0.00 | 0.22 | 0.22 | 64 | 1017.0 |
| 20260507231506 | 69 | 195 | 0.0 | 1.0 | 0.00 | 0.22 | 0.22 | 63 | 1017.5 |
| 20260507231003 | 68 | 185 | 0.0 | 1.0 | 0.00 | 0.22 | 0.22 | 62 | 1017.2 |
| 20260507230500 | 68 | 299 | 2.0 | 3.0 | 0.00 | 0.22 | 0.22 | 60 | 1017.0 |
| 20260507225955 | 68 | 114 | 1.0 | 2.0 | 0.00 | 0.22 | 0.22 | 60 | 1016.9 |
| 20260507225452 | 69 | 334 | 2.0 | 2.0 | 0.00 | 0.22 | 0.22 | 59 | 1017.1 |
| 20260507224948 | 69 | 307 | 1.0 | 4.0 | 0.00 | 0.22 | 0.22 | 60 | 1016.9 |
| 20260507224444 | 69 | 325 | 2.0 | 6.0 | 0.00 | 0.22 | 0.22 | 59 | 1017.2 |
| 20260507223941 | 69 | 72 | 1.0 | 4.0 | 0.00 | 0.22 | 0.22 | 58 | 1017.1 |
| 20260507223437 | 70 | 342 | 1.0 | 3.0 | 0.00 | 0.22 | 0.22 | 57 | 1017.2 |
| 20260507222935 | 69 | 357 | 1.0 | 2.0 | 0.00 | 0.22 | 0.22 | 57 | 1017.1 |
| 20260507222431 | 69 | 329 | 2.0 | 6.0 | 0.00 | 0.22 | 0.22 | 57 | 1017.1 |
| 20260507221927 | 70 | 309 | 2.0 | 3.0 | 0.00 | 0.22 | 0.22 | 58 | 1016.8 |
| 20260507221424 | 70 | 283 | 3.0 | 4.0 | 0.00 | 0.22 | 0.22 | 57 | 1016.9 |
| 20260507220920 | 71 | 260 | 1.0 | 2.0 | 0.00 | 0.22 | 0.22 | 57 | 1016.9 |
| 20260507220418 | 70 | 185 | 0.0 | 2.0 | 0.00 | 0.22 | 0.22 | 57 | 1016.9 |
| 20260507215914 | 69 | 97 | 2.0 | 3.0 | 0.00 | 0.22 | 0.22 | 62 | 1016.9 |
| 20260507215411 | 69 | 233 | 0.0 | 1.0 | 0.00 | 0.22 | 0.22 | 63 | 1017.0 |
| 20260507214908 | 68 | 329 | 2.0 | 3.0 | 0.00 | 0.22 | 0.22 | 59 | 1016.9 |
| 20260507214406 | 69 | 20 | 2.0 | 3.0 | 0.00 | 0.22 | 0.22 | 59 | 1016.9 |
| 20260507213901 | 69 | 158 | 0.0 | 3.0 | 0.00 | 0.22 | 0.22 | 60 | 1016.9 |
| 20260507213358 | 69 | 247 | 3.0 | 4.0 | 0.00 | 0.22 | 0.22 | 59 | 1016.9 |
| 20260507212855 | 69 | 299 | 3.0 | 3.0 | 0.00 | 0.22 | 0.22 | 60 | 1016.7 |
| 20260507212351 | 69 | 268 | 4.0 | 6.0 | 0.00 | 0.22 | 0.22 | 58 | 1016.7 |
| 20260507211848 | 69 | 239 | 2.0 | 4.0 | 0.00 | 0.22 | 0.22 | 59 | 1016.8 |
| 20260507211344 | 68 | 303 | 0.0 | 4.0 | 0.00 | 0.22 | 0.22 | 59 | 1016.6 |
| 20260507210842 | 69 | 37 | 3.0 | 4.0 | 0.00 | 0.22 | 0.22 | 60 | 1016.6 |
| 20260507210338 | 68 | 279 | 3.0 | 7.0 | 0.00 | 0.22 | 0.22 | 59 | 1016.7 |
| 20260507205835 | 68 | 272 | 2.0 | 4.0 | 0.00 | 0.22 | 0.22 | 61 | 1016.5 |
| 20260507205332 | 68 | 46 | 1.0 | 3.0 | 0.00 | 0.22 | 0.22 | 62 | 1016.6 |
| 20260507204827 | 68 | 262 | 3.0 | 7.0 | 0.00 | 0.22 | 0.22 | 61 | 1016.6 |
| 20260507204325 | 68 | 260 | 3.0 | 6.0 | 0.00 | 0.22 | 0.22 | 64 | 1016.4 |
| 20260507203823 | 67 | 49 | 2.0 | 2.0 | 0.00 | 0.22 | 0.22 | 64 | 1016.4 |
| 20260507203321 | 67 | 288 | 1.0 | 2.0 | 0.00 | 0.22 | 0.22 | 66 | 1016.4 |
| 20260507202816 | 68 | 271 | 1.0 | 2.0 | 0.00 | 0.22 | 0.22 | 68 | 1016.6 |
| 20260507202313 | 67 | 272 | 1.0 | 3.0 | 0.00 | 0.22 | 0.22 | 69 | 1016.4 |
| 20260507201808 | 67 | 177 | 2.0 | 3.0 | 0.00 | 0.22 | 0.22 | 71 | 1016.4 |
| 20260507201304 | 67 | 173 | 0.0 | 0.0 | 0.00 | 0.22 | 0.22 | 72 | 1016.7 |
| 20260507200801 | 66 | 83 | 2.0 | 3.0 | 0.00 | 0.22 | 0.22 | 74 | 1016.6 |
| 20260507200257 | 65 | 83 | 1.0 | 2.0 | 0.00 | 0.22 | 0.22 | 73 | 1016.4 |
| 20260507195753 | 65 | 96 | 2.0 | 2.0 | 0.00 | 0.22 | 0.22 | 73 | 1016.4 |
| 20260507195250 | 65 | 95 | 2.0 | 2.0 | 0.00 | 0.22 | 0.22 | 74 | 1016.5 |
| 20260507194748 | 66 | 90 | 1.0 | 2.0 | 0.00 | 0.22 | 0.22 | 73 | 1016.6 |
| 20260507194243 | 66 | 124 | 0.0 | 1.0 | 0.00 | 0.22 | 0.22 | 71 | 1016.5 |
| 20260507193740 | 65 | 39 | 1.0 | 2.0 | 0.00 | 0.22 | 0.22 | 73 | 1016.7 |
| 20260507193237 | 65 | 50 | 2.0 | 3.0 | 0.00 | 0.22 | 0.22 | 74 | 1016.7 |
| 20260507192733 | 65 | 93 | 2.0 | 2.0 | 0.00 | 0.22 | 0.22 | 74 | 1016.9 |
| 20260507192230 | 65 | 86 | 2.0 | 2.0 | 0.00 | 0.22 | 0.22 | 72 | 1016.8 |
| 20260507191726 | 64 | 53 | 1.0 | 2.0 | 0.00 | 0.22 | 0.22 | 74 | 1016.7 |
| 20260507191223 | 65 | 111 | 1.0 | 2.0 | 0.00 | 0.22 | 0.22 | 73 | 1016.9 |
| 20260507190720 | 65 | 129 | 0.0 | 1.0 | 0.00 | 0.22 | 0.22 | 72 | 1016.8 |
| 20260507190219 | 65 | 166 | 1.0 | 1.0 | 0.00 | 0.22 | 0.22 | 73 | 1017.0 |
| 20260507185717 | 64 | 87 | 0.0 | 2.0 | 0.00 | 0.22 | 0.22 | 74 | 1017.1 |
| 20260507185214 | 64 | 156 | 1.0 | 2.0 | 0.00 | 0.22 | 0.22 | 74 | 1017.1 |
| 20260507184711 | 64 | 116 | 1.0 | 2.0 | 0.00 | 0.22 | 0.22 | 75 | 1017.3 |
| 20260507184209 | 64 | 92 | 2.0 | 3.0 | 0.00 | 0.22 | 0.22 | 73 | 1017.3 |
| 20260507183705 | 65 | 115 | 0.0 | 3.0 | 0.00 | 0.22 | 0.22 | 72 | 1017.0 |
| 20260507183202 | 65 | 118 | 2.0 | 2.0 | 0.00 | 0.22 | 0.22 | 72 | 1016.9 |
| 20260507182659 | 64 | 111 | 0.0 | 2.0 | 0.00 | 0.22 | 0.22 | 73 | 1017.2 |
| 20260507182154 | 64 | 108 | 2.0 | 3.0 | 0.00 | 0.22 | 0.22 | 77 | 1017.0 |
| 20260507181651 | 64 | 107 | 1.0 | 3.0 | 0.00 | 0.22 | 0.22 | 74 | 1017.3 |
| 20260507181148 | 63 | 97 | 2.0 | 2.0 | 0.00 | 0.22 | 0.22 | 75 | 1017.2 |
| 20260507180644 | 63 | 104 | 2.0 | 2.0 | 0.00 | 0.22 | 0.22 | 76 | 1017.2 |
| 20260507180142 | 62 | 95 | 1.0 | 3.0 | 0.00 | 0.22 | 0.22 | 76 | 1017.1 |
| 20260507175637 | 62 | 105 | 3.0 | 4.0 | 0.00 | 0.22 | 0.22 | 78 | 1017.2 |
| 20260507175135 | 62 | 97 | 4.0 | 4.0 | 0.00 | 0.22 | 0.22 | 79 | 1017.5 |
| 20260507174631 | 62 | 118 | 2.0 | 4.0 | 0.00 | 0.22 | 0.22 | 77 | 1017.4 |
| 20260507174130 | 62 | 93 | 3.0 | 4.0 | 0.00 | 0.22 | 0.22 | 78 | 1017.3 |
| 20260507173626 | 61 | 70 | 4.0 | 4.0 | 0.00 | 0.22 | 0.22 | 78 | 1017.5 |
| 20260507173124 | 61 | 82 | 3.0 | 3.0 | 0.00 | 0.22 | 0.22 | 77 | 1017.7 |
| 20260507172619 | 61 | 39 | 1.0 | 4.0 | 0.00 | 0.22 | 0.22 | 77 | 1017.8 |
| 20260507172117 | 61 | 61 | 4.0 | 4.0 | 0.00 | 0.22 | 0.22 | 77 | 1017.8 |
| 20260507171612 | 62 | 77 | 2.0 | 3.0 | 0.00 | 0.22 | 0.22 | 76 | 1017.9 |
| 20260507171109 | 62 | 64 | 2.0 | 3.0 | 0.00 | 0.22 | 0.22 | 79 | 1017.9 |
| 20260507170606 | 61 | 86 | 4.0 | 4.0 | 0.00 | 0.22 | 0.22 | 77 | 1017.9 |
| 20260507170103 | 61 | 42 | 1.0 | 6.0 | 0.00 | 0.22 | 0.22 | 79 | 1017.8 |
| 20260507165558 | 62 | 45 | 2.0 | 4.0 | 0.00 | 0.22 | 0.22 | 79 | 1017.7 |
| 20260507165055 | 61 | 72 | 5.0 | 6.0 | 0.00 | 0.22 | 0.22 | 79 | 1017.9 |
| 20260507164551 | 62 | 82 | 4.0 | 4.0 | 0.00 | 0.22 | 0.22 | 78 | 1017.9 |
| 20260507164049 | 61 | 295 | 3.0 | 3.0 | 0.00 | 0.22 | 0.22 | 78 | 1017.8 |
| 20260507163546 | 61 | 75 | 1.0 | 2.0 | 0.00 | 0.22 | 0.22 | 78 | 1017.7 |
| 20260507163044 | 60 | 46 | 2.0 | 3.0 | 0.00 | 0.22 | 0.22 | 80 | 1017.9 |
| 20260507162538 | 60 | 332 | 2.0 | 3.0 | 0.00 | 0.22 | 0.22 | 81 | 1017.7 |
| 20260507162035 | 60 | 279 | 2.0 | 3.0 | 0.00 | 0.22 | 0.22 | 84 | 1017.8 |
| 20260507161532 | 59 | 307 | 3.0 | 3.0 | 0.00 | 0.22 | 0.22 | 85 | 1017.7 |
| 20260507161028 | 59 | 224 | 0.0 | 3.0 | 0.00 | 0.22 | 0.22 | 86 | 1017.7 |
| 20260507160524 | 59 | 296 | 1.0 | 2.0 | 0.00 | 0.22 | 0.22 | 88 | 1017.8 |
| 20260507160021 | 58 | 6 | 2.0 | 2.0 | 0.00 | 0.22 | 0.22 | 88 | 1018.0 |
| 20260507155516 | 59 | 273 | 1.0 | 1.0 | 0.00 | 0.22 | 0.22 | 89 | 1017.9 |
| 20260507155014 | 58 | 48 | 1.0 | 2.0 | 0.00 | 0.22 | 0.22 | 89 | 1018.0 |
| 20260507154510 | 58 | 124 | 0.0 | 1.0 | 0.00 | 0.22 | 0.22 | 89 | 1017.8 |
| 20260507154009 | 58 | 96 | 0.0 | 2.0 | 0.00 | 0.22 | 0.22 | 89 | 1017.7 |
| 20260507153504 | 57 | 126 | 0.0 | 3.0 | 0.00 | 0.22 | 0.22 | 89 | 1017.8 |
| 20260507153000 | 58 | 137 | 0.0 | 1.0 | 0.00 | 0.22 | 0.22 | 91 | 1017.8 |
| 20260507152456 | 58 | 49 | 0.0 | 1.0 | 0.00 | 0.22 | 0.22 | 92 | 1017.7 |
| 20260507151953 | 57 | 332 | 1.0 | 2.0 | 0.00 | 0.22 | 0.22 | 92 | 1017.6 |
| 20260507151449 | 58 | 269 | 1.0 | 2.0 | 0.00 | 0.22 | 0.22 | 93 | 1017.5 |
| 20260507150946 | 58 | 129 | 0.0 | 2.0 | 0.00 | 0.22 | 0.22 | 93 | 1017.5 |
| 20260507150443 | 58 | 29 | 0.0 | 1.0 | 0.00 | 0.22 | 0.22 | 93 | 1017.4 |
| 20260507145939 | 57 | 287 | 0.0 | 2.0 | 0.00 | 0.22 | 0.22 | 94 | 1017.4 |